User: anonymous   Login
Location: Newark
(56.0692°N, 115.8617°E)
Time: 18:45:50
(UTC+00:00)
Language:

Vanguard 2 Rocket - Orbit

View from above orbital plane
View from above orbital plane
View from above satellite
View from above satellite

Ground track
Ground track

The orbit data is extracted from the following two-line orbital elements,

1 00012U 59001B   21173.25865083 -.00000033  00000-0 -40517-4 0  9998
2 00012  32.9056 136.9688 1666382 220.3436 126.1035 11.44391769322351
Epoch (UTC): 22 June 2021 06:12:27
Eccentricity: 0.1666382
inclination: 32.9056°
perigee height: 554 km
apogee height: 3326 km
right ascension of ascending node: 136.9688°
argument of perigee: 220.3436°
revolutions per day: 11.44391769
mean anomaly at epoch: 126.1035°
orbit number at epoch: 32235

The dashed part of the orbit path shows where the satellite is in the earth's shadow,  

DLR